weather.gov     
National Weather Service

Regional Weather Roundup
NWS Homepage
This page is being discontinued on March 12, 2014.
The same data is available at this site. Please update your bookmarks.
Thank you, and we apologize for the inconvenience.
Please send an email to SR-SRH.Webmaster@noaa.gov with any concerns.


Current Version
Previous Version:    01  02  03  04  05  06  07  08  09  10  11  12  13  14  15  16  17  18  19  20  21  22  23  24  25  26  27  
[Printable]
348
ASUS44 KMOB 182010
RWRMOB
REGIONAL WEATHER ROUNDUP
NATIONAL WEATHER SERVICE MOBILE AL
200 PM CST THU DEC 18 2014

NOTE: "FAIR" INDICATES FEW OR NO CLOUDS BELOW 12,000 FEET WITH NO
      SIGNIFICANT WEATHER AND/OR OBSTRUCTIONS TO VISIBILITY.

  * THESE STATIONS ARE PART OF THE UNIVERSITY OF SOUTH ALABAMA
    MESONET AND ARE NOT UNDER NWS OR FAA QUALITY CONTROL.

ALZ061>064-182100-
COASTAL ALABAMA

CITY           SKY/WX    TMP DP  RH WIND       PRES   REMARKS
MOBILE REG APT PTSUNNY   64  42  44 E6        30.11F
BROOKLEY FIELD MOSUNNY   61  42  49 SE7       30.12F
USA CAMPUS*      N/A     64  43  45 SE6       30.11F
DOG RIVER*     NOT AVBL


CITY           SKY/WX    TMP DP  RH WIND       PRES   REMARKS
MOUNT VERNON*    N/A     63  39  42 CALM      30.12F
SARALAND*      NOT AVBL
BAY MINETTE*   NOT AVBL
LOXLEY*          N/A     63  41  45 CALM      30.11F
ROBERTSDALE*     N/A     64  41  42 SE6       30.10F
FAIRHOPE*        N/A     61  46  59 W7        30.11F
ELBERTA*         N/A     64  45  48 CALM      30.12F
FOLEY*           N/A     63  36  36 E5        30.09F
GRAND BAY*       N/A     66  45  45 CALM      30.09F
DAUPHIN ISLND* NOT AVBL
BON SCOUR NWR* NOT AVBL
GULF SHORES    MOSUNNY   61  46  57 CALM      30.13S

$$

ALZ051>060-182100-
INTERIOR SOUTHWEST AND SOUTH CENTRAL ALABAMA

CITY           SKY/WX    TMP DP  RH WIND       PRES   REMARKS
GREENVILLE     NOT AVBL
EVERGREEN      CLOUDY    64  30  27 CALM      30.13F
CASTLEBERRY*   NOT AVBL
ATMORE*          N/A     64  37  36 NW2       30.12F
DIXIE*           N/A     63  39  42 CALM      30.09F
ANDALUSIA/OPP  SUNNY     68  26  20 CALM      30.11F
ANDALUSIA*       N/A    N/A N/A N/A SW3       30.11F
FLORALA APT    PTSUNNY   65  34  31 CALM      30.13F
FLORALA*         N/A     63  36  36 E5        30.09F

$$

FLZ001>006-182100-
WESTERN FLORIDA PANHANDLE

CITY           SKY/WX    TMP DP  RH WIND       PRES   REMARKS
PENSACOLA      SUNNY     60  41  49 E3        30.13S
NAS PENSACOLA  PTSUNNY   62  45  53 S6        30.12F
MILTON         MOSUNNY   63  38  39 CALM      30.12F
WHTNG S FIELD  MOSUNNY   66  40  38 VRB3      30.12F


CITY           SKY/WX    TMP DP  RH WIND       PRES   REMARKS
WALNUT HILL*   NOT AVBL
JAY*             N/A     64  34  32 S2        30.12F
DUKE FIELD     MOSUNNY   63  37  37 NW3       30.12F
CRESTVIEW      SUNNY     65  35  33 VRB3      30.13F
VALPARAISO     PTSUNNY   60  43  52 S6        30.12F
DESTIN         MOSUNNY   60  45  57 S3        30.12F

$$

MSZ076-079-182100-
INTERIOR SOUTHEAST MISSISSIPPI

CITY           SKY/WX    TMP DP  RH WIND       PRES   REMARKS
LEAKESVILLE*   NOT AVBL
AGRICOLA*      NOT AVBL

$$

MARINE OBSERVATIONS

STATION/POSITION TIME  TEMP    WIND        PRES    WAVE
                       AIR SEA DIR/SP/G            HT/PER
                 (UTC) (F)     (DEG/KT/KT) (MB)    (FT/S)
PASCAGOULA       2000   57     140/  9/ 11 1019.5S
PETIT BOIS ISLND 2000   58      90/  7/  9 1020.0F
GRAND BAY        1900   57     150/  6     1021.0F
KATRINA CUT      1900   57      90/  5     1021.0F
CEDAR POINT      1900   54      80/  3     1020.3F
E DAUPHIN ISLAND 1854   56      70/  3/  4 1020.4F
MIDDLE BAY LIGHT 1900   55     250/  3     1020.0F
USCG MOBILE BAY  2000   58 60  130/  5/  7 1018.7F
STATE DOCKS      2000   60 59              1019.5F
MEAHER PARK      1900   59     250/  4     1020.3F
WEEKS BAY        1900   64                   N/A
FORT MORGAN      2000   58     130/  8/  9 1019.3F
12 S ORANGE BCH  2000   59 65  100/  8/ 10 1019.6F   1/ 6
PENSACOLA BAY    2000   60 58  160/  3/  4 1020.7R
64 S DAUPHIN ISL 2000   67 74  140/  4/  8 1019.6F   1/ 6
67 S FORT MORGAN 1900   67     110/  4     1019.6F

$$

SELECTED LOCATIONS ACROSS THE REGION

CITY           SKY/WX    TMP DP  RH WIND       PRES   REMARKS
NEW ORLEANS    CLOUDY    68  54  60 S10       30.09F
GULFPORT       SUNNY     60  46  59 SE8       30.12F
PASCAGOULA AP  PTSUNNY   66  45  46 S8        30.11F
PASCAGOULA*      N/A     63  41  45 SE9       30.11F
HATTIESBURG    CLOUDY    62  43  49 N3        30.13F
LAUREL         CLOUDY    57  41  54 N9        30.14S
MERIDIAN       CLOUDY    50  38  63 CALM      30.15F
JACKSON        CLOUDY    50  44  80 CALM      30.16S
MONTGOMERY     CLOUDY    60  27  28 CALM      30.13F
TROY           PTSUNNY   61  29  29 CALM      30.12F
KINSTON*       NOT AVBL
GENEVA*          N/A     64  34  32 CALM      30.13F
ASHFORD*         N/A    N/A N/A N/A SW3       30.11F
DOTHAN         SUNNY     64  26  23 SW5       30.14F
PANAMA CITY    CLOUDY    64  39  39 W3        30.11F

$$





U.S. Dept. of Commerce
NOAA National Weather Service
1325 East West Highway
Silver Spring, MD 20910
E-mail: w-nws.webmaster@noaa.gov
Page last modified: May 16, 2007
NATIONAL WEATHER SERVICE: for Safety, for Work, for Fun - FOR LIFE